MST,Max TemperatureF,Mean TemperatureF,Min TemperatureF,Max Dew PointF,MeanDew PointF,Min DewpointF,Max Humidity, Mean Humidity, Min Humidity, Max Sea Level PressureIn, Mean Sea Level PressureIn, Min Sea Level PressureIn, Max VisibilityMiles, Mean VisibilityMiles, Min VisibilityMiles, Max Wind SpeedMPH, Mean Wind SpeedMPH, Max Gust SpeedMPH,PrecipitationIn, CloudCover, Events, WindDirDegrees
2012-11-1,80,60,41,30,26,19,49,31,14,30.14,30.06,29.97,10,10,10,14,6,16,0.00,0,,250
2012-11-2,80,64,48,32,22,16,38,22,10,30.04,29.98,29.92,10,10,10,16,4,,0.00,0,,64
2012-11-3,64,55,46,36,30,21,57,40,28,30.22,30.12,29.99,10,10,10,21,8,26,0.00,0,,344
2012-11-4,75,57,39,39,33,27,65,49,24,30.24,30.17,30.09,10,10,10,14,4,,0.00,0,,212
2012-11-5,68,55,42,32,25,19,66,32,21,30.31,30.20,30.13,10,10,10,21,8,26,0.00,0,,322
2012-11-6,77,57,37,28,25,23,56,34,13,30.22,30.17,30.12,10,9,4,9,3,,0.00,0,,42
2012-11-7,80,60,39,32,26,19,52,33,13,30.21,30.10,29.99,10,10,10,16,8,20,0.00,0,,207
2012-11-8,82,63,44,32,27,21,57,28,13,30.05,29.96,29.90,10,10,10,20,8,25,0.00,0,,209
2012-11-9,80,65,50,41,35,27,51,34,20,29.98,29.90,29.84,10,10,10,29,14,38,0.00,0,,218
2012-11-10,77,64,50,48,36,28,88,42,18,29.86,29.77,29.67,10,10,4,40,16,51,0.00,0,,213
2012-11-11,57,44,32,27,9,-4,53,24,8,30.33,30.09,29.87,10,10,10,32,14,39,0.00,1,,324
2012-11-12,53,38,24,7,2,-2,43,24,10,30.46,30.38,30.33,10,10,10,13,6,16,0.00,0,,195
2012-11-13,57,42,26,18,10,0,44,30,20,30.35,30.27,30.18,10,10,10,9,4,,0.00,0,,199
2012-11-14,62,43,24,18,15,9,55,36,18,30.36,30.26,30.17,10,10,10,16,5,21,0.00,0,,184
2012-11-15,66,49,32,21,15,9,48,31,11,30.34,30.22,30.15,10,10,10,16,7,20,0.00,0,,344
2012-11-16,62,52,41,36,27,16,62,41,26,30.37,30.29,30.22,10,10,10,15,7,,0.00,0,,55
2012-11-17,62,50,37,45,40,30,82,66,48,30.28,30.19,30.11,10,10,10,16,6,,0.00,3,,161
2012-11-18,59,52,42,54,47,39,100,87,71,30.19,30.13,30.08,10,9,1,17,5,,0.05,2,Rain,172
2012-11-19,69,53,37,48,39,32,100,67,27,30.27,30.20,30.16,10,9,0,13,5,,0.00,0,Fog,240
2012-11-20,68,52,35,32,26,21,70,42,17,30.32,30.24,30.19,10,10,10,12,6,,0.00,0,,303
2012-11-21,71,56,42,50,36,25,72,49,33,30.23,30.15,30.06,10,10,9,18,6,24,0.00,0,,248
2012-11-22,75,58,42,45,35,16,87,47,20,30.30,30.09,30.03,10,10,10,14,5,,0.00,0,,328
2012-11-23,55,44,32,28,19,14,61,38,20,30.60,30.48,30.32,10,10,10,15,10,16,0.00,0,,332
2012-11-24,71,48,26,27,20,12,55,35,17,30.41,30.19,29.99,10,10,10,18,6,24,0.00,0,,210
2012-11-25,77,60,44,32,25,18,46,30,12,30.00,29.93,29.85,10,10,10,16,6,,0.00,0,,305
2012-11-26,71,54,37,27,24,18,61,35,13,30.42,30.11,29.91,10,10,10,20,11,25,0.00,0,Rain,24
2012-11-27,55,40,26,27,24,19,75,52,33,30.43,30.33,30.25,10,10,10,14,6,17,0.00,0,,172
2012-11-28,71,50,28,32,26,16,69,46,20,30.31,30.23,30.14,10,10,10,21,7,25,0.00,0,,195
2012-11-29,75,56,37,36,29,23,81,43,17,30.17,30.11,30.03,10,10,10,15,7,,0.00,0,,207
2012-11-30,77,57,37,28,23,16,56,31,12,30.15,30.07,29.99,10,10,10,17,6,22,0.00,0,,204